This is the latest recevied weather packets stored in our database for station/object KD7JB. If no packets are shown the sender has not sent any weather packets the latest 10 day(s).
| Time | Temp. | Humidity | Pressure | Rain* | Wind** | Luminosity | Snow |
|---|---|---|---|---|---|---|---|
| 1777931449 | 21.67° C | 34% | 1171.8 hPa | 0 mm | - | 648 W/m² | - |
| 1777931145 | 22.22° C | 35% | 1171.8 hPa | 0 mm | - | 657 W/m² | - |
| 1777930842 | 21.67° C | 35% | 1171.8 hPa | 0 mm | - | 666 W/m² | - |
| 1777930538 | 22.22° C | 34% | 1172 hPa | 0 mm | - | 672 W/m² | - |
| 1777930235 | 22.22° C | 38% | 1172 hPa | 0 mm | - | 680 W/m² | - |
| 1777929931 | 21.67° C | 39% | 1172.1 hPa | 0 mm | - | 687 W/m² | - |
| 1777929629 | 21.67° C | 34% | 1171.9 hPa | 0 mm | - | 692 W/m² | - |
| 1777929325 | 21.11° C | 34% | 1172.1 hPa | 0 mm | - | 700 W/m² | - |
| 1777929022 | 21.67° C | 34% | 1172.1 hPa | 0 mm | - | 705 W/m² | - |
| 1777928719 | 22.22° C | 34% | 1172 hPa | 0 mm | - | 709 W/m² | - |
| 1777928416 | 21.67° C | 36% | 1172.2 hPa | 0 mm | - | 717 W/m² | - |
| 1777928114 | 21.11° C | 35% | 1172.4 hPa | 0 mm | - | 721 W/m² | - |
| 1777927812 | 21.67° C | 36% | 1172.1 hPa | 0 mm | - | 725 W/m² | - |
| 1777927509 | 21.11° C | 36% | 1172.5 hPa | 0 mm | - | 730 W/m² | - |
| 1777927208 | 21.11° C | 35% | 1172.4 hPa | 0 mm | - | 734 W/m² | - |
| 1777926906 | 21.11° C | 34% | 1172.5 hPa | 0 mm | - | 737 W/m² | - |
| 1777926602 | 21.11° C | 35% | 1172.4 hPa | 0 mm | - | 739 W/m² | - |
| 1777926298 | 21.11° C | 35% | 1172.5 hPa | 0 mm | - | 743 W/m² | - |
| 1777925995 | 20.56° C | 33% | 1172.6 hPa | 0 mm | - | 744 W/m² | - |
| 1777925693 | 20.56° C | 34% | 1172.7 hPa | 0 mm | - | 747 W/m² | - |
| 1777925390 | 21.11° C | 33% | 1172.7 hPa | 0 mm | - | 748 W/m² | - |
| 1777925087 | 20.56° C | 35% | 1172.6 hPa | 0 mm | - | 750 W/m² | - |
| 1777924783 | 20.56° C | 36% | 1172.8 hPa | 0 mm | - | 751 W/m² | - |
| 1777924479 | 20.56° C | 35% | 1172.7 hPa | 0 mm | - | 751 W/m² | - |
| 1777924176 | 20.56° C | 36% | 1172.9 hPa | 0 mm | - | 751 W/m² | - |
* Rain latest hour (hover to see other rain measurements)
** Current wind speed in m/s (hover to see current wind gust speed)